Tracking 17631 objects as of 6-May-2016
HD Live streaming from Space Station
objects crossing your sky now

BONUM 1

Track BONUM 1 now!
BONUM 1 is classified as:


NORAD ID: 25546
Int'l Code: 1998-068A
Perigee: 36,130.3 km
Apogee: 36,157.1 km
Inclination: 3.4 °
Period: 1,454.0 minutes
Semi major axis: 42514 km
RCS: 0.003 m2 (small)
Launch date: November 22, 1998
Source: Commonwealth of Independent States (former USSR) (CIS)
Launch site: AIR FORCE EASTERN TEST RANGE (AFETR)

Television broadcasting; 8 Ku-band, Siberia or Europe, selected.
Your satellite tracking list
Your tracking list is empty





NASA's NSSDC Master Catalog

Two Line Element Set (TLE):
1 25546U 98068A   16125.79934032 -.00000079  00000-0  00000+0 0  9991
2 25546   3.4376  69.3508 0003149 278.7441  81.0893  0.99036360 63934
Source of the keplerian elements: AFSPC

N2YO: 292